Regional Weather Roundup
Issued by NWS New Orleans/Baton Rouge, LA

Home | Current Version | Previous Version | Graphics & Text | Print | Product List | Glossary On
Versions: 1 2 3 4 5 6 7 8 9 10 11 12 13 14 15 16 17 18 19 20 21 22 23 24 25 26 27 28 29 30 31 32 33 34 35 36 37 38 39 40 41 42 43 44 45 46 47 48 49 50
778
ASUS44 KLIX 202310
RWRLIX
NEW ORLEANS REGIONAL WEATHER ROUNDUP
NATIONAL WEATHER SERVICE NEW ORLEANS LA
600 PM CDT MON OCT 20 2014

NOTE: "FAIR" INDICATES FEW OR NO CLOUDS BELOW 12,000 FEET WITH NO
      SIGNIFICANT WEATHER AND/OR OBSTRUCTIONS TO VISIBILITY.
      SKY/WX - SKY CONDITION AND SIGNIFICANT WEATHER.
      TMP - AIR TEMPERATURE.     DP    - DEWPOINT TEMPERATURE.
      RH  - RELATIVE HUMIDITY.   PRES  - PRESSURE.
      HI  - HEAT INDEX.          WCI   - WIND CHILL INDEX.

*  THESE STATIONS ARE NOT NWS OR FAA STATIONS AND ARE NOT UNDER
   NWS QUALITY CONTROL.

LAZ038-040-048-061>063-065>067-069-210000-
SOUTHEAST LOUISIANA

CITY           SKY/WX    TMP DP  RH WIND       PRES   REMARKS
N.O. AUDUBON   NOT AVBL
N.O. INTL ARPT PTCLDY    73  53  49 N8        29.99S
N.O. LAKEFRONT PTCLDY    75  54  47 N7        30.00R
N.O. DOWNTOWN*   N/A     77  48  36 N8        30.00R
SLIDELL        PTCLDY    74  55  51 CALM      29.99S
BATON ROUGE    CLEAR     74  55  51 CALM      30.00S
BOOTHVILLE     MOCLDY    73  66  78 NE7       29.99R
BELLE CHASSE   PTCLDY    70  57  63 NE5       29.98S
BOGALUSA*        N/A     73  50  44 N3        30.02R
NEW ROADS*       N/A     72  56  56 NW6       30.00S
GONZALES*        N/A     74  56  52 CALM      29.99S
HAMMOND*       CLEAR     75  52  43 CALM      30.02R
HOUMA*         NOT AVBL
PORT FOURCHON* CLEAR     75  64  69 E7        30.01R

$$

MSZ070-080>082-210000-
SOUTHERN MISSISSIPPI

CITY           SKY/WX    TMP DP  RH WIND       PRES   REMARKS
MCCOMB         PTCLDY    74  49  41 CALM      30.01S
GULFPORT       PTCLDY    73  54  51 SW3       29.98S
BILOXI         PTCLDY    73  55  53 SW6       29.99S
PASCAGOULA     PTCLDY    72  51  47 CALM      29.99R
STENNIS ARPT*  CLEAR     66  55  68 CALM      29.99S

$$

COASTAL OBSERVATIONS
LAKE AND NEARSHORE STATIONS

STATION/POSITION TIME  TEMP    WIND        PRES    WAVE
                       AIR SEA DIR/SP/G            HT/PER
                 (UTC) (F)     (DEG/KT/KT) (MB)    (FT/S)
PASCAGOULA       2300   75     270/  6/  8 1014.9
WAVELAND YACHT   2300   76      10/  5/  6 1014.8
GRAND ISLE       2300   74 78   70/  8/ 11 1015.8
SOUTHWEST PASS   2300   82 85              1015.2
NEW CANAL        2300   75 73  360/  5/  6 1016.1
SHELL BEACH      2300   75 70  330/  4/  4 1015.4

OFFSHORE STATIONS

STATION/POSITION TIME  TEMP    WIND        PRES    WAVE
                       AIR SEA DIR/SP/G            HT/PER
                 (UTC) (F)     (DEG/KT/KT) (MB)    (FT/S)
64 S DAUPHIN ISL 2216   75 80   20/  6/  8 1015.3    1/ 5

$$




USA.gov is the U.S. government's official web portal to all federal, state and local government web resources and services.